Weather in Saint Helens

United Kingdom     53°27′33″N   2°45′07″W
temp.,
°C
wind,
m/s
gust,
m/s
humid.,
%
clouds,
%
prec.,
mm/h
press.,
hPa
HPBL,
m
20 april, tue
tue2001:00+10nnw0066100 0.0 101930
04:00+9w1169100 0.0 101842
07:00+9wnw1271100 0.0 101979
10:00+11nnw1266100 0.0 1019341
13:00+14nw115290 0.0 10191104
16:00+15nw4351100 0.1 10181274
19:00+11nw3560100 0.2 1019448
22:00+9nw2471100 0.0 1019159
21 april, wed
wed2101:00+9ene397892 0.0 1020439
04:00+8ene4108573 0.0 1021494
07:00+7ene51074100 0.0 1022599
10:00+9e576399 0.0 1024852
13:00+11e344947 0.0 10241302
16:00+13ene333912 0.0 10231865
19:00+12ene444465 0.0 10241090
22:00+7e485845 0.0 1027602
22 april, thu
thu2201:00+5se25645 0.0 1027354
04:00+4se13715 0.0 1028112
07:00+3se12705 0.0 1029129
10:00+9se12415 0.0 1029549
13:00+13se12285 0.0 10291111
16:00+15se11275 0.0 10281484
19:00+14wnw11385 0.0 1028400
22:00+9n00651 0.0 103012
23 april, fri
fri2301:00+8sse23680 0.0 103089
04:00+6se23740 0.0 103070
07:00+6se24720 0.0 1031120
10:00+11se34510 0.0 1031576
13:00+15sse34400 0.0 10311303
16:00+17sse34351 0.0 10291625
19:00+14sse34445 0.0 1030907
22:00+10se376170 0.0 1031284
24 april, sat
sat2401:00+8se2754100 0.0 1031250
04:00+7se2660100 0.0 1031203
07:00+7sse2461100 0.0 1031150
10:00+11se2445100 0.0 1032525
13:00+15se3439100 0.0 10311343
16:00+17ese34332 0.0 10301823
19:00+15se35462 0.0 10301049
22:00+11se376898 0.0 1032346